Location: Rayville (historical)
(39.9992°N, 99.6815°W)
Time: 21:33:00
(UTC+00:00)

STARLINK-1079 - Pass Details

Date: 18 February 2020
Orbit: 549 x 550 km, 53.0° (Epoch: 05 April)

Event Time Altitude Azimuth Distance (km) Brightness Sun altitude
Exits shadow 10:23:40 13° 65° (ENE) 1,627 6.7 -35.8°
Drops below altitude 10° 10:24:10 10° 62° (ENE) 1,811 7.0 -35.7°
Enters shadow 11:24:53 -62° 234° (SW) 11,846 10.4 -24.3°
